Location: Goettingen
(51.5300°N, 9.9433°E)
Time: 15:40:13
(UTC+02:00)

ISS - Pass Details

Date: 20 May 2018
Orbit: 402 x 407 km, 51.6° (Epoch: 27 May)

Event Time Altitude Azimuth Distance (km) Brightness Sun altitude
Rises 23:07:02 0° 222° (SW) 2,311 -0.2 -12.9°
Reaches altitude 10° 23:09:15 10° 211° (SSW) 1,454 -1.3 -13.1°
Maximum altitude 23:12:07 29° 150° (SSE) 781 -3.0 -13.3°
Drops below altitude 10° 23:14:59 10° 88° (E) 1,459 -1.3 -13.6°
Sets 23:17:14 0° 77° (ENE) 2,321 -0.1 -13.7°
